Regional Weather Roundup
Issued by NWS Wakefield, VA

Home | Current Version | Previous Version | Graphics & Text | Print | Product List | Glossary On
Versions: 1 2 3 4 5 6 7 8 9 10 11 12 13 14 15 16 17 18 19 20 21 22 23 24 25 26 27
000
ASUS41 KAKQ 222115
RWRAKQ

REGIONAL WEATHER ROUNDUP
NATIONAL WEATHER SERVICE WAKEFIELD VA
500 PM EDT FRI JUL 22 2016

Note: "fair" indicates few or no clouds below 12,000 feet with no
significant weather and/or obstructions to visibility. * = Denotes
station may not report precipitation (e.g., rain,snow,etc.),
thunder or fog.

VAZ042-051-052>054-056-222200-
NORTHERN VIRGINIA

CITY           SKY/WX    TMP DP  RH WIND       PRES   REMARKS
WASH NATIONAL  CLOUDY    93  72  50 S15       29.92F HX 101
DULLES         PTSUNNY   92  68  45 SW7       29.93F HX  96
FORT BELVOIR   FAIR      92  71  50 S8        29.93F HX  98
QUANTICO       FAIR      90  73  57 S13       29.94F HX  98
FREDERICKSBRG*   N/A     93  69  45 SW6       29.94F HX  99
STAFFORD*      FAIR      92  66  42 CALM      29.98F
WARRENTON      FAIR      93  65  38 S6        29.95F HX  95
CULPEPER*      FAIR      92  73  54 SW7       29.95F HX 100
MANASSAS*      SUNNY     91  72  52 SW7       29.94F HX  98
LEESBURG*      FAIR      95  73  49 W9        29.94F HX 105
WINCHESTER     FAIR      90  64  43 W7        29.95F
FRONT ROYAL*   FAIR      90  70  51 SW3       29.95F HX  95
LURAY*         FAIR      90  70  51 SW7       29.98F HX  95
$$

VAZ048-049-060>072-079>083-222200-
CENTRAL AND SOUTH CENTRAL VIRGINIA

CITY           SKY/WX    TMP DP  RH WIND       PRES   REMARKS
RICHMOND       PTSUNNY   91  70  49 SW10      29.97F HX  96
CHESTERFIELD*  FAIR      93  64  38 W5        29.99F HX  95
PETERSBURG*    FAIR      93  71  48 S3        29.99S HX  99
HANOVER        FAIR      91  68  46 W7        29.98F HX  95
TAPPAHANNOCK*  FAIR      92  69  47 S5        29.97F HX  97
QUINTON*       FAIR      90  73  57 SW6       29.97F HX  98
CHARLOTTSVILLE FAIR      91  65  41 VRB3      29.97F
GORDONSVILLE*  FAIR      91  72  52 S5        29.97F HX  98
ORANGE*          N/A     91  68  46 S5        29.99F HX  95
LOUISA*        FAIR      93  72  49 CALM      29.97F HX 100
BUMPASS*       FAIR      89  69  50 SW3       29.98F
FARMVILLE*     NOT AVBL
CREWE*         FAIR      92  71  48 S5        29.99F HX  99
FORT PICKETT*  FAIR      91  68  45 SW7       30.00F HX  95
CHASE CITY*    FAIR      92  71  50 CALM      30.00F HX  99
CLARKSVILLE*   MOCLDY    90  73  58 S3        29.99F HX  98
SOUTH HILL*    FAIR      91  74  56 S8        30.05F HX 100
LAWRENCEVILLE* FAIR      91  74  59 SW7       29.99F HX 100
EMPORIA*       PTSUNNY   88  73  62 SE5       30.00F HX  96
$$

VAZ088>098-222200-
SOUTHEAST VIRGINIA

CITY           SKY/WX    TMP DP  RH WIND       PRES   REMARKS
NORFOLK        PTSUNNY   93  72  50 S14       29.98F HX 101
VIRGINIA BEACH PTSUNNY   95  71  45 S13       29.97F HX 102
NORFOLK NAVAL  FAIR      91  72  53 SW12G21   29.99F HX  98
WEST POINT*    FAIR      91  72  54 SW6       29.97F HX  98
SALUDA*        FAIR      90  77  65 SW5       29.96F HX 102
NEWPORT NEWS   FAIR      91  75  59 SW15      29.97F HX 101
LANGLEY AFB    FAIR      91  76  61 SE14G20   29.97F HX 102
FORT EUSTIS    FAIR      92  77  61 SW9       29.96F HX 104
WILLIAMSBURG*  FAIR      93  77  59 CALM      29.98F HX 107
HR EXEC AP*    FAIR      90  73  58 SW12      30.00F HX  98
FRANKLIN*      FAIR      90  73  58 SW6       29.99F HX  98
US460-WAKEFLD  FAIR      91  74  57 SW10      29.98F HX 100
$$

VAZ020-022-025-037-045-222200-
WEST CENTRAL AND SOUTHWEST VIRGINIA

CITY           SKY/WX    TMP DP  RH WIND       PRES   REMARKS
STAUNTON*      FAIR      90  69  51 SW10      30.03F
WAYNESBORO*    FAIR      87  67  51 CALM      30.03F
HOT SPRINGS VA NOT AVBL
LYNCHBURG      FAIR      91  65  41 VRB5      30.02F
DANVILLE       FAIR      93  65  39 VRB6      30.00F HX  95
SOUTH BOSTON*  CLOUDY    92  69  47 NW8       30.00S HX  97
MARTINSVILLE   FAIR      93  67  42 CALM      30.04F HX  96
ROANOKE        FAIR      92  67  43 NW15G25   30.05F HX  95
BLACKSBURG     FAIR      85  65  50 N8        30.14F
DUBLIN*        FAIR      88  62  42 N5        30.12F
MARION*        FAIR      84  67  56 CALM      30.17S
HILLSVILLE*    FAIR      86  65  49 N5        30.13F
RICHLANDS*     FAIR      83  67  58 NW3       30.16S
WISE*          FAIR      86  54  32 NE5       30.16F
ABINGDON*      FAIR      88  64  45 NW3       30.11F
$$

MDZ021>025-VAZ099-100-222200-
SOUTHERN MARYLAND AND THE DELMARVA PENINSULA

CITY           SKY/WX    TMP DP  RH WIND       PRES   REMARKS
PATUXENT RIVER PTSUNNY   95  63  34 SW10      29.94F HX  96
BAY BRIDGE APT MOSUNNY   91  70  49 SW9       29.92F HX  97
LEONARDTOWN    SUNNY     91  63  38 W9        29.96F
DOVER          MOSUNNY   92  71  50 S13       29.90F HX  98
GEORGETOWN     MOSUNNY   90  72  55 SW14      29.94F HX  97
EASTON         MOSUNNY   93  72  49 SW14      29.97F HX 100
CAMBRIDGE      MOSUNNY   90  68  48 SW6       29.94F
SALISBURY      MOSUNNY   88  75  65 SW12      29.95F HX  97
OCEAN CITY     MOSUNNY   86  75  69 SW14G24   29.96S HX  95
WALLOPS ISLAND PTSUNNY   84  74  71 S18       29.97F
ACCOMACK*      FAIR      88  73  62 S13       29.96F HX  96
$$

NCZ012>017-030>032-222200-
NORTH CENTRAL AND EASTERN NORTH CAROLINA

CITY           SKY/WX    TMP DP  RH WIND       PRES   REMARKS
ROANOKE RAPIDS FAIR      88  73  62 SW12      30.01S HX  96
RALEIGH        PTSUNNY   92  73  53 SW9       30.01F HX 100
ELIZABETH CITY PTSUNNY   90  71  53 SW15G21   30.00F HX  96
AHOSKIE*       SUNNY     87  74  65 CALM      30.00F HX  96
EDENTON*       PTSUNNY   91  69  46 SW10      30.01F HX  96
CURRITUCK*     PTSUNNY   90  68  48 SW10G16   30.01F
KILL DEVIL HLS PTSUNNY   90  71  53 S9        30.01F HX  95
MANTEO           N/A     86  74  66 S16       30.03F
CAPE HATTERAS  SUNNY     86  69  56 S8        30.05F
TARBORO*       FAIR      91  73  56 S7        30.01F HX  99
GOLDSBORO      SUNNY     93  70  46 SW10      30.00F HX  98
WASHINGTON     CLOUDY    89  71  54 S8        30.01F
GREENVILLE     MOSUNNY   90  72  55 SW10      30.03F HX  96
NEW BERN       MOSUNNY   89  70  53 S9        30.04F
WILMINGTON     SUNNY     88  71  57 S8        30.03F
$$

VAZ048-222200-
ELSEWHERE

CITY           SKY/WX    TMP DP  RH WIND       PRES   REMARKS
HARRISBURG PA  CLOUDY    91  68  46 W12       29.88F HX  95
BALTIMORE      PTSUNNY   94  68  42 W8        29.91F HX  98
ANNAPOLIS      MOSUNNY   91  73  55 S9        29.91F HX  99
ANDREWS AFB    FAIR      90  70  52 SW12      29.93F HX  95
PHILADELPHIA   CLOUDY    92  70  48 SW18      29.88F HX  97
GREENSBORO     PTSUNNY   93  64  38 W7        30.02F
ROCKY MOUNT    PTSUNNY   89  74  60 SW6       30.01F HX  98
$$

VAZ100-222200-
MARINE

STATION/POSITION TIME  TEMP    WIND        PRES    WAVE   SWELL
                       AIR SEA DIR/SP/G            HT/PER HT/PER
                 (UTC) (F)     (DEG/KT/KT) (MB)    (FT/S) (FT/S)
BRANDYWINE LGT   2000   86     240/ 16/ 17   N/A
CAPE MAY NJ      2000   83 74  220/  6/  7 1013.5F
LEWES DE         2000   90 72  250/  8/ 14 1013.7F
15NM E FENWICK I 2050   79                   N/A
OCEAN-CITY-INLET 2000   78 76  210/ 14/ 17 1015.0F
WACHAPREAGUE VA  2000   86 87  200/ 14/ 18 1015.1F
THOMAS POINT MD  2100   86 82  180/ 13/ 15 1014.4F
GOOSES REEF MD   2000   88 85  180/  6/  8 1015.3F   1
COVE POINT MD    2000   85     140/  7/  8 1015.0F
SOLOMONS ISLAND  2000   90 83  250/ 10/ 12   N/A
BISHOPS HEAD MD  2000   86 87  190/ 13/ 15 1015.0F
PINEY POINT MD   2000          340/  8/  8   N/A
POTOMAC MD       2000   87 85  320/  4/  4 1013.6F   1
CAMBRIDGE MD     2000   90 85  210/  9/ 13 1013.5F
LEWISETTA VA     2000   87 81   10/  6/  7 1014.4F
RAPPAHANNOCK LGT 2000          180/ 13/ 14 1015.8F
STINGRAY PT      2000   88 85  160/ 10/ 12 1015.5F   1/ 2
YORK RVR RNG VA  2000   89     240/ 11/ 12 1014.8F
YORKTOWN VA      2000   89 83  220/ 11/ 14 1014.9F
JAMESTOWN VA     2000   90 88  230/  8/ 14   N/A     1
DOMINION TERM VA 2000   87     230/ 12/ 14 1015.6F
KIPTOPEKE VA     2000      80  180/  4/  6   N/A
CHES BAY BRIDGE  2000   88 81  190/ 15/ 16 1015.3F
CAPE HENRY VA    2000   89     210/  6/ 11   N/A
WILLOUBY STN VA  2000   87     230/ 14/ 16   N/A
CAPE HENRY BUOY  2012      81                N/A     3/ 9
1ST LANDING BUOY 2000   87 81  200/ 10/ 14 1015.2F
CAPE CHARLES BUO 2056      73                N/A     3/ 9
OFFSHORE WE BUOY 2021      83                N/A     3/ 3
64NM E OF VA BCH 2050   81 82  190/ 16/ 17 1016.3F   3/ 9   2/ 9
DUCK PIER NC     2000   86 80  180/ 13/ 15 1015.9F
44100 DUCK FRF   2005      81                N/A     3/ 9
44056 DUCK FRF   2011      82                N/A     2/ 9
OREGON INLET NC  2000   84 83  180/ 14/ 16 1017.4F
HATTERAS NC      2000   85 83  170/  8/ 11 1017.5F
DIAMOND SHLS NC  2050   83 86  190/  8/ 10 1017.5F   2/ 9   2/ 9
CAPE LOOKOUT NC  2100   84     180/  9/ 10 1017.2F
$$




USA.gov is the U.S. government's official web portal to all federal, state and local government web resources and services.